Theta_e
277 276 276 276 276 276 276 275 275 274 274 274 274 274 274 274 275 274 274 274 274 274 274 274 274 274 275 275 276 279 279 279 280 283 285 286 286 287 290 292 293 293
276 276 277 276 276 276 275 275 274 274 274 274 274 274 274 274 274 274 274 274 274 274 274 274 274 274 274 275 276 276 277 277 278 282 284 284 284 285 288 292 293 293
275 275 274 274 274 274 274 275 275 274 274 274 274 274 274 274 274 274 274 273 273 273 273 274 274 274 275 275 275 275 275 276 278 282 283 282 283 284 287 292 292 292
274 274 274 274 274 274 274 274 274 274 274 273 273 274 274 274 274 273 273 274 273 273 273 273 273 273 273 273 273 274 274 276 278 280 281 282 283 284 286 290 292 292
273 273 273 273 273 274 274 273 273 273 273 273 273 273 274 273 273 273 273 272 272 272 272 272 273 273 273 273 274 274 275 277 278 280 280 280 282 283 285 289 291 291
273 273 273 272 273 273 273 272 273 273 273 273 273 273 273 273 273 272 272 272 272 272 272 272 272 272 273 273 274 274 275 276 277 278 279 279 281 283 285 288 290 290
271 271 271 272 272 272 272 272 272 273 273 273 273 272 273 273 273 273 273 272 272 272 272 271 271 272 272 273 273 273 273 274 274 276 277 279 281 283 285 287 289 290
270 271 271 271 270 271 271 271 271 272 272 272 272 272 273 272 272 272 272 272 272 271 271 271 271 271 272 272 272 272 272 273 274 276 278 280 281 281 282 284 288 290
270 269 269 269 269 270 270 270 271 271 272 271 271 272 272 272 272 272 272 271 271 271 271 270 271 271 271 271 271 271 271 272 274 275 275 277 278 279 281 283 285 288
268 268 268 268 268 269 269 270 270 270 271 271 272 272 272 272 271 271 271 271 270 270 270 270 270 271 271 271 271 271 271 271 272 272 272 274 277 279 280 282 282 285
267 267 267 267 268 268 268 269 269 270 271 271 271 271 271 270 270 270 269 269 269 269 269 269 269 269 269 270 270 270 270 270 271 271 272 273 275 277 280 280 282 283
266 267 267 267 267 268 268 268 269 270 270 270 270 269 269 269 268 268 268 267 268 268 268 268 268 268 269 269 269 269 270 270 270 270 271 272 273 275 277 278 279 282
266 266 266 267 267 267 268 268 268 269 269 268 268 268 267 267 267 266 267 267 267 267 267 267 267 268 268 268 269 269 269 269 269 270 271 272 273 274 276 278 279 282
265 266 266 266 267 267 267 268 268 268 267 267 266 266 265 265 265 265 265 266 266 266 266 267 267 267 267 268 268 268 268 269 269 269 270 271 272 275 277 279 280 283
265 266 266 266 266 267 267 267 266 266 265 265 265 264 264 264 264 264 264 264 265 266 266 266 267 267 267 268 267 268 268 268 269 269 270 271 272 274 277 279 280 281
265 265 265 266 266 265 265 265 264 264 264 263 263 263 263 263 263 264 264 264 264 265 266 266 267 267 269 272 273 270 270 270 270 270 271 272 273 275 277 279 280 282
264 264 265 264 264 264 263 263 263 262 262 261 261 262 262 262 263 263 263 264 265 265 265 266 267 268 272 274 275 276 273 272 272 272 273 273 274 275 276 278 280 282
264 264 263 262 262 262 262 261 261 260 260 260 260 260 261 262 262 263 263 264 265 265 266 266 267 270 273 274 275 276 276 273 272 272 273 273 275 276 277 278 280 281
263 262 261 261 261 261 260 260 259 259 259 259 259 260 261 261 262 263 263 264 265 265 266 267 267 271 273 274 275 276 277 276 273 273 272 273 274 275 277 279 281 282
261 260 260 259 260 259 259 259 258 258 259 260 260 261 261 262 262 263 263 264 265 265 266 267 267 271 274 275 276 276 277 277 273 273 273 273 274 275 277 278 280 280
260 259 259 258 258 258 258 258 258 258 259 260 260 261 262 262 262 263 264 265 265 266 266 267 267 273 274 276 277 277 278 278 274 274 274 274 274 275 277 278 280 281
259 258 258 257 257 257 257 257 258 258 259 260 261 262 262 263 263 263 263 264 265 266 267 267 268 273 275 276 277 277 278 275 275 274 274 274 275 276 277 278 280 280
258 257 256 256 257 257 257 257 258 259 260 261 261 261 261 261 262 263 263 264 265 266 266 267 268 271 275 276 277 278 277 275 274 274 274 274 275 277 279 280 281 281
257 256 256 256 256 256 257 258 259 260 261 261 261 260 260 261 262 262 263 264 265 265 266 267 268 272 275 277 278 279 278 275 274 274 274 274 276 277 279 280 280 282
256 256 256 256 256 257 257 258 259 260 260 261 261 261 261 261 262 262 262 263 265 266 269 268 268 271 275 277 278 279 278 277 276 275 274 274 275 276 278 280 281 282
256 255 256 256 256 257 258 259 260 260 260 260 260 260 260 261 261 261 262 263 264 265 266 267 268 269 272 276 278 279 280 279 277 275 274 274 275 276 277 280 281 281
Wind_Speed
5 5 7 7 8 8 9 10 10 10 10 9 11 13 11 12 13 13 14 11 13 15 13 15 14 14 14 15 18 17 15 12 14 11 13 14 14 17 18 18 16 12
7 7 7 7 8 8 8 9 10 10 12 10 11 11 12 13 12 11 14 13 14 13 14 14 14 13 14 12 15 16 12 13 17 12 14 14 14 16 19 19 17 14
7 7 7 8 9 11 11 10 9 10 10 12 12 11 12 12 13 13 11 13 13 14 13 13 14 15 16 14 14 14 12 16 18 14 12 14 13 16 17 16 14 15
7 7 8 10 10 11 11 10 10 10 10 11 12 11 12 11 13 14 12 14 14 13 12 13 14 14 14 15 15 12 15 14 15 13 12 11 13 13 16 16 15 13
8 9 8 9 9 11 11 10 12 11 11 13 12 13 11 11 13 15 13 13 11 13 13 15 14 13 14 14 14 16 16 13 12 10 12 14 12 13 14 15 14 13
8 8 9 9 10 10 11 11 11 10 13 12 11 11 13 15 15 13 14 14 13 13 15 16 18 18 17 17 16 15 15 14 12 12 15 15 14 14 12 15 14 12
10 10 11 10 11 10 11 11 11 12 12 12 13 14 14 15 16 18 16 15 17 18 17 19 18 18 16 16 16 16 15 16 17 18 17 15 14 15 14 14 15 13
11 10 10 10 12 12 13 12 12 12 13 14 15 16 14 19 17 19 16 19 18 18 18 19 19 18 17 16 16 16 16 14 16 18 16 14 12 13 14 14 15 14
10 10 10 12 12 12 12 13 13 14 13 16 16 17 17 14 18 16 21 17 20 18 19 19 18 18 16 17 17 18 18 18 16 15 15 15 14 14 13 13 15 14
10 10 12 11 12 11 13 14 13 14 15 14 18 15 14 19 14 20 17 20 17 20 17 18 18 17 18 17 18 18 18 19 18 16 16 18 17 13 12 12 14 14
11 11 11 12 13 12 14 14 14 15 13 18 16 16 19 15 19 16 19 17 17 17 19 18 18 19 19 19 18 17 18 18 18 17 17 17 17 16 14 13 13 15
11 11 12 13 14 14 14 15 15 15 19 15 16 20 17 19 17 18 16 19 19 18 18 18 18 18 19 19 19 18 18 18 18 18 18 18 17 17 16 13 14 15
11 12 12 13 13 14 14 14 15 17 15 18 18 15 20 19 20 19 18 18 19 18 19 19 19 18 18 19 18 18 18 19 19 18 18 17 17 17 17 15 14 15
11 11 12 13 13 14 15 16 17 15 17 18 15 19 18 19 19 19 19 18 19 18 18 18 18 18 18 18 18 18 18 18 18 18 18 18 18 17 16 14 14 13
12 11 11 11 11 12 13 15 14 16 16 16 16 17 16 18 19 19 20 21 20 19 19 18 17 17 14 15 16 17 17 18 18 18 19 18 17 17 16 14 13 13
11 11 11 11 11 14 14 12 14 13 13 13 13 13 14 15 16 18 18 19 20 19 18 16 15 14 18 27 25 18 16 15 16 17 17 17 17 16 15 14 14 12
11 10 11 12 11 13 12 13 14 12 14 14 15 13 15 14 17 18 18 18 19 18 18 16 15 14 25 26 27 29 22 18 17 17 17 18 18 17 16 16 13 13
11 11 13 11 14 13 12 14 12 15 13 14 14 14 14 14 16 17 18 17 16 17 18 17 16 22 27 27 27 28 26 19 17 16 16 17 17 17 16 14 12 11
10 11 12 13 13 11 13 12 14 15 14 14 14 14 14 16 16 16 17 17 17 17 17 17 17 24 26 28 27 28 29 25 17 17 16 17 18 18 16 15 11 9
11 11 12 11 11 12 14 12 14 12 14 13 13 14 14 16 16 17 17 16 16 17 16 16 18 23 28 28 29 29 29 26 19 18 17 18 19 18 16 16 15 11
12 11 11 12 12 13 13 14 12 13 14 12 13 14 16 16 15 16 16 16 17 16 16 16 17 27 27 29 29 30 29 25 18 16 15 17 18 18 18 16 13 10
13 13 13 12 14 14 13 15 13 13 14 16 13 13 14 15 16 15 17 17 17 17 17 18 19 28 27 29 30 28 28 16 14 14 14 16 17 17 17 16 14 13
12 13 14 13 14 15 15 14 14 16 14 12 15 16 16 16 16 16 15 16 18 17 18 18 19 24 28 29 29 28 22 12 13 11 13 14 16 16 15 13 12 12
11 12 13 14 13 14 16 14 14 13 13 12 15 17 17 16 16 15 16 15 17 18 18 18 19 24 30 29 29 27 21 13 10 10 12 13 13 15 14 13 14 22
11 12 13 14 14 15 14 16 15 14 14 14 13 14 15 15 15 15 15 15 15 17 25 23 18 21 28 27 28 27 20 11 9 8 11 13 12 13 13 11 11 14
11 12 13 13 15 15 15 13 13 13 14 14 13 12 13 14 14 14 16 15 16 16 16 17 18 17 20 28 28 27 26 14 8 8 10 13 14 13 12 11 12 12
Wind_Direction
288 292 293 293 290 287 290 291 288 284 283 284 286 291 290 292 295 293 289 285 284 284 284 283 282 281 282 283 282 281 285 291 290 284 278 278 279 283 276 259 247 236
298 296 294 294 292 289 285 283 285 285 286 282 282 285 288 290 287 285 288 288 286 279 282 283 282 280 280 278 278 280 285 285 283 274 275 280 281 282 280 263 245 238
300 300 297 295 295 295 292 287 281 280 283 285 286 284 287 289 289 286 283 283 284 285 285 284 282 280 277 274 276 280 279 280 273 271 273 277 280 279 279 268 244 237
305 303 302 299 297 294 292 288 285 283 284 285 287 288 287 288 288 288 286 285 284 283 282 281 280 279 277 276 275 270 269 266 267 271 270 270 270 274 278 272 248 237
305 307 303 299 296 293 292 289 289 289 286 285 286 287 287 288 290 290 287 284 278 280 282 282 279 273 276 276 272 272 268 262 261 262 265 268 270 273 278 273 248 237
304 303 301 298 297 298 294 291 289 287 286 287 286 290 292 291 288 285 284 283 285 285 288 289 286 285 280 278 278 280 284 284 282 278 273 271 273 273 273 273 259 241
309 311 307 304 300 297 294 291 290 290 291 290 294 292 294 291 293 294 289 288 291 290 290 290 287 283 281 280 279 277 277 280 283 279 275 271 266 270 276 276 265 245
308 307 303 306 305 303 298 297 296 296 297 297 294 293 296 297 294 297 292 294 290 289 288 287 282 281 279 279 276 278 278 280 276 268 262 265 274 278 280 284 277 251
307 307 309 308 306 302 299 300 301 300 300 298 296 301 296 295 296 294 295 292 291 287 288 285 281 280 279 278 276 276 276 275 275 287 290 283 276 274 277 281 284 264
310 311 310 308 306 305 302 303 302 301 300 295 299 294 299 298 297 297 295 294 290 288 284 285 283 282 280 277 274 273 274 275 277 279 281 281 279 269 267 275 279 284
313 314 311 311 308 306 304 304 304 303 302 302 300 301 300 301 298 298 294 293 291 289 287 287 286 284 282 279 276 274 273 274 273 274 272 271 272 275 273 271 276 274
316 316 315 314 311 308 307 307 305 306 307 303 305 302 303 300 299 296 295 292 290 289 287 286 284 281 278 277 275 273 271 270 270 268 268 266 266 268 270 263 266 274
317 317 316 312 311 309 308 306 306 307 306 306 306 303 301 301 299 296 292 291 289 287 284 283 281 279 277 275 274 272 271 269 268 267 265 265 263 260 256 255 255 254
318 316 313 310 308 307 305 306 307 306 307 306 306 303 301 299 298 297 294 290 289 285 282 280 276 276 274 272 269 268 268 267 266 268 266 264 263 258 254 251 253 259
316 314 309 305 303 301 303 308 308 306 304 303 302 300 297 297 296 294 292 290 285 282 280 275 273 271 271 268 265 263 262 264 264 264 265 264 260 258 255 250 248 247
311 307 307 305 308 311 310 308 306 305 304 300 296 291 289 288 288 288 285 285 285 283 279 275 271 269 268 267 265 262 260 261 260 261 263 265 265 263 258 254 250 247
311 308 310 311 312 310 309 308 309 307 303 299 297 292 290 290 292 291 288 286 285 283 282 277 271 268 269 268 268 267 266 266 264 264 261 260 260 260 259 256 248 246
311 312 313 312 315 312 311 309 305 304 300 299 296 295 292 292 290 290 291 290 286 282 280 277 274 270 272 273 271 269 268 266 265 265 266 267 265 260 259 258 254 250
315 315 314 313 312 311 309 306 306 302 301 301 298 296 294 293 295 295 293 289 283 282 279 278 277 274 275 273 273 273 270 266 265 264 264 263 264 264 260 257 245 238
318 317 313 311 311 308 307 303 305 301 300 296 294 298 295 295 295 293 291 286 283 280 278 276 276 277 276 274 272 272 271 268 264 263 262 262 261 260 258 257 255 256
320 316 310 312 312 309 306 305 303 304 303 301 302 298 305 308 309 308 305 299 294 284 275 275 277 278 279 277 277 276 272 269 264 260 260 259 256 256 258 259 258 258
324 318 314 312 313 312 308 308 308 306 307 309 306 312 313 311 309 307 306 304 300 297 291 280 279 281 284 285 284 281 274 268 264 259 260 263 260 253 247 249 249 248
322 317 313 312 312 311 309 310 313 314 313 315 316 317 317 315 313 309 308 306 303 296 293 292 284 282 286 289 288 281 275 265 260 254 258 257 260 261 257 246 235 232
318 314 310 310 311 310 310 310 310 308 312 319 317 318 317 316 314 310 308 306 302 299 295 295 291 286 290 295 295 292 281 260 239 243 248 256 258 257 256 255 253 253
313 311 308 308 309 309 310 311 313 316 316 316 314 312 311 313 313 309 306 303 300 298 299 300 297 297 298 301 301 296 289 263 249 227 247 251 254 260 258 249 243 243
309 307 306 306 307 307 308 308 312 314 317 315 314 313 311 312 309 307 305 303 304 302 296 293 293 291 296 302 306 308 307 297 232 221 232 245 248 252 254 246 243 242